Time,TemperatureF,DewpointF,PressureIn,WindDirection,WindDirectionDegrees,WindSpeedMPH,WindSpeedGustMPH,Humidity,HourlyPrecipIn,Conditions,Clouds,dailyrainin,SoftwareType,DateUTC
2013-06-01 00:00:00,76.4,64.6,29.97,WNW,283,4.0,0.0,67,0.00,,,0.00,WeatherTracker,2013-06-01 04:00:00,
2013-06-01 00:05:00,76.1,64.3,29.97,WSW,249,0.0,0.0,67,0.00,,,0.00,WeatherTracker,2013-06-01 04:05:00,
2013-06-01 00:10:00,75.9,64.6,29.97,WSW,249,0.0,0.0,68,0.00,,,0.00,WeatherTracker,2013-06-01 04:10:00,
2013-06-01 00:20:00,75.4,64.5,29.97,West,274,2.0,0.0,69,0.00,,,0.00,WeatherTracker,2013-06-01 04:20:00,
2013-06-01 00:25:00,75.1,64.2,29.97,WSW,237,3.0,0.0,69,0.00,,,0.00,WeatherTracker,2013-06-01 04:25:00,
2013-06-01 00:30:00,74.8,63.9,29.96,WSW,257,2.0,0.0,69,0.00,,,0.00,WeatherTracker,2013-06-01 04:30:00,
2013-06-01 00:40:00,74.5,63.6,29.96,WNW,284,3.0,0.0,69,0.00,,,0.00,WeatherTracker,2013-06-01 04:40:00,
2013-06-01 00:45:00,74.5,63.6,29.96,WNW,288,1.0,0.0,69,0.00,,,0.00,WeatherTracker,2013-06-01 04:45:00,
2013-06-01 00:50:00,74.4,63.6,29.96,WNW,292,0.0,0.0,69,0.00,,,0.00,WeatherTracker,2013-06-01 04:50:00,
2013-06-01 00:55:00,74.4,64.0,29.96,West,273,3.0,0.0,70,0.00,,,0.00,WeatherTracker,2013-06-01 04:55:00,
2013-06-01 01:00:00,74.2,63.8,29.96,West,270,2.0,0.0,70,0.00,,,0.00,WeatherTracker,2013-06-01 05:00:00,
2013-06-01 01:10:00,74.0,64.0,29.96,WNW,284,0.0,0.0,71,0.00,,,0.00,WeatherTracker,2013-06-01 05:10:00,
2013-06-01 01:15:00,73.8,63.8,29.96,West,281,0.0,0.0,71,0.00,,,0.00,WeatherTracker,2013-06-01 05:15:00,
2013-06-01 01:20:00,73.6,63.6,29.96,WNW,286,0.0,0.0,71,0.00,,,0.00,WeatherTracker,2013-06-01 05:20:00,
2013-06-01 01:25:00,73.5,63.9,29.96,WNW,293,0.0,0.0,72,0.00,,,0.00,WeatherTracker,2013-06-01 05:25:00,
2013-06-01 01:30:00,73.3,63.7,29.95,West,269,1.0,0.0,72,0.00,,,0.00,WeatherTracker,2013-06-01 05:30:00,
2013-06-01 01:35:00,73.1,63.9,29.95,WSW,242,1.0,0.0,73,0.00,,,0.00,WeatherTracker,2013-06-01 05:35:00,
2013-06-01 01:45:00,72.7,63.9,29.95,West,263,0.0,0.0,74,0.00,,,0.00,WeatherTracker,2013-06-01 05:45:00,
2013-06-01 01:50:00,72.5,64.1,29.95,West,269,1.0,0.0,75,0.00,,,0.00,WeatherTracker,2013-06-01 05:50:00,
2013-06-01 01:55:00,72.2,63.8,29.95,West,269,0.0,0.0,75,0.00,,,0.00,WeatherTracker,2013-06-01 05:55:00,
2013-06-01 02:00:00,72.0,63.6,29.95,West,265,0.0,0.0,75,0.00,,,0.00,WeatherTracker,2013-06-01 06:00:00,
2013-06-01 02:05:00,71.9,63.9,29.95,West,265,1.0,0.0,76,0.00,,,0.00,WeatherTracker,2013-06-01 06:05:00,
2013-06-01 02:10:00,71.7,63.7,29.95,West,265,1.0,0.0,76,0.00,,,0.00,WeatherTracker,2013-06-01 06:10:00,
2013-06-01 02:20:00,71.3,63.3,29.95,West,265,0.0,0.0,76,0.00,,,0.00,WeatherTracker,2013-06-01 06:20:00,
2013-06-01 02:30:00,71.1,63.5,29.94,West,265,0.0,0.0,77,0.00,,,0.00,WeatherTracker,2013-06-01 06:30:00,
2013-06-01 02:40:00,70.6,63.4,29.94,West,265,1.0,0.0,78,0.00,,,0.00,WeatherTracker,2013-06-01 06:40:00,
2013-06-01 02:45:00,70.5,63.3,29.94,West,261,1.0,0.0,78,0.00,,,0.00,WeatherTracker,2013-06-01 06:45:00,
2013-06-01 02:50:00,70.4,63.2,29.94,WNW,291,1.0,0.0,78,0.00,,,0.00,WeatherTracker,2013-06-01 06:50:00,
2013-06-01 02:55:00,70.4,63.6,29.94,WNW,300,1.0,0.0,79,0.00,,,0.00,WeatherTracker,2013-06-01 06:55:00,
2013-06-01 03:00:00,70.4,63.2,29.94,West,280,2.0,0.0,78,0.00,,,0.00,WeatherTracker,2013-06-01 07:00:00,
2013-06-01 03:10:00,70.6,63.4,29.94,West,264,3.0,0.0,78,0.00,,,0.00,WeatherTracker,2013-06-01 07:10:00,
2013-06-01 03:15:00,70.6,63.4,29.94,NW,305,2.0,0.0,78,0.00,,,0.00,WeatherTracker,2013-06-01 07:15:00,
2013-06-01 03:20:00,70.6,63.4,29.94,NW,315,3.0,0.0,78,0.00,,,0.00,WeatherTracker,2013-06-01 07:20:00,
2013-06-01 03:30:00,70.6,63.4,29.94,WNW,298,1.0,0.0,78,0.00,,,0.00,WeatherTracker,2013-06-01 07:30:00,
2013-06-01 03:40:00,70.6,63.4,29.94,NNW,328,1.0,0.0,78,0.00,,,0.00,WeatherTracker,2013-06-01 07:40:00,
2013-06-01 03:45:00,70.5,63.3,29.94,West,268,1.0,0.0,78,0.00,,,0.00,WeatherTracker,2013-06-01 07:45:00,
2013-06-01 03:50:00,70.4,63.6,29.94,WNW,285,2.0,0.0,79,0.00,,,0.00,WeatherTracker,2013-06-01 07:50:00,
2013-06-01 04:00:00,70.2,63.4,29.94,West,281,1.0,0.0,79,0.00,,,0.00,WeatherTracker,2013-06-01 08:00:00,
2013-06-01 04:05:00,70.1,63.3,29.94,WNW,290,1.0,0.0,79,0.00,,,0.00,WeatherTracker,2013-06-01 08:05:00,
2013-06-01 04:15:00,69.9,63.4,29.94,West,268,3.0,0.0,80,0.00,,,0.00,WeatherTracker,2013-06-01 08:15:00,
2013-06-01 04:20:00,69.8,63.3,29.94,WNW,284,2.0,0.0,80,0.00,,,0.00,WeatherTracker,2013-06-01 08:20:00,
2013-06-01 04:25:00,69.7,63.2,29.94,West,263,2.0,0.0,80,0.00,,,0.00,WeatherTracker,2013-06-01 08:25:00,
2013-06-01 04:35:00,69.5,63.4,29.94,WNW,286,2.0,0.0,81,0.00,,,0.00,WeatherTracker,2013-06-01 08:35:00,
2013-06-01 04:45:00,69.4,63.3,29.94,West,266,2.0,0.0,81,0.00,,,0.00,WeatherTracker,2013-06-01 08:45:00,
2013-06-01 04:55:00,69.2,63.1,29.94,West,276,1.0,0.0,81,0.00,,,0.00,WeatherTracker,2013-06-01 08:55:00,
2013-06-01 05:05:00,69.1,63.4,29.95,NW,311,0.0,0.0,82,0.00,,,0.00,WeatherTracker,2013-06-01 09:05:00,
2013-06-01 05:10:00,69.0,63.3,29.95,WNW,291,3.0,0.0,82,0.00,,,0.00,WeatherTracker,2013-06-01 09:10:00,
2013-06-01 05:20:00,68.9,63.2,29.95,West,265,3.0,0.0,82,0.00,,,0.00,WeatherTracker,2013-06-01 09:20:00,
2013-06-01 05:30:00,68.8,63.1,29.95,West,281,1.0,0.0,82,0.00,,,0.00,WeatherTracker,2013-06-01 09:30:00,
2013-06-01 05:35:00,68.8,63.1,29.95,WNW,287,1.0,0.0,82,0.00,,,0.00,WeatherTracker,2013-06-01 09:35:00,
2013-06-01 05:45:00,68.8,63.1,29.95,WNW,290,1.0,0.0,82,0.00,,,0.00,WeatherTracker,2013-06-01 09:45:00,
2013-06-01 05:50:00,68.8,63.1,29.95,WNW,288,1.0,0.0,82,0.00,,,0.00,WeatherTracker,2013-06-01 09:50:00,
2013-06-01 06:00:00,68.9,63.5,29.95,West,271,2.0,0.0,83,0.00,,,0.00,WeatherTracker,2013-06-01 10:00:00,
2013-06-01 06:05:00,68.9,63.5,29.95,NW,321,3.0,0.0,83,0.00,,,0.00,WeatherTracker,2013-06-01 10:05:00,
2013-06-01 06:15:00,69.2,63.5,29.95,West,281,2.0,0.0,82,0.00,,,0.00,WeatherTracker,2013-06-01 10:15:00,
2013-06-01 06:20:00,69.4,63.7,29.95,West,267,1.0,0.0,82,0.00,,,0.00,WeatherTracker,2013-06-01 10:20:00,
2013-06-01 06:30:00,69.8,63.7,29.96,NW,304,4.0,0.0,81,0.00,,,0.00,WeatherTracker,2013-06-01 10:30:00,
2013-06-01 06:40:00,70.3,64.2,29.96,WNW,302,0.0,0.0,81,0.00,,,0.00,WeatherTracker,2013-06-01 10:40:00,
2013-06-01 06:50:00,70.8,64.3,29.96,NNW,329,1.0,0.0,80,0.00,,,0.00,WeatherTracker,2013-06-01 10:50:00,
2013-06-01 06:55:00,71.0,64.1,29.96,WNW,284,2.0,0.0,79,0.00,,,0.00,WeatherTracker,2013-06-01 10:55:00,
2013-06-01 07:00:00,71.2,64.3,29.95,NW,312,3.0,0.0,79,0.00,,,0.00,WeatherTracker,2013-06-01 11:00:00,
2013-06-01 07:05:00,71.5,64.3,29.95,West,261,4.0,0.0,78,0.00,,,0.00,WeatherTracker,2013-06-01 11:05:00,
2013-06-01 07:15:00,72.1,64.5,29.95,West,266,3.0,0.0,77,0.00,,,0.00,WeatherTracker,2013-06-01 11:15:00,
2013-06-01 07:20:00,72.4,64.8,29.95,WNW,288,2.0,0.0,77,0.00,,,0.00,WeatherTracker,2013-06-01 11:20:00,
2013-06-01 07:30:00,73.1,65.1,29.95,West,271,2.0,0.0,76,0.00,,,0.00,WeatherTracker,2013-06-01 11:30:00,
2013-06-01 07:35:00,73.5,65.5,29.95,WSW,238,3.0,0.0,76,0.00,,,0.00,WeatherTracker,2013-06-01 11:35:00,
2013-06-01 07:40:00,73.9,65.5,29.95,West,277,3.0,0.0,75,0.00,,,0.00,WeatherTracker,2013-06-01 11:40:00,
2013-06-01 07:50:00,74.6,65.4,29.96,NW,325,2.0,0.0,73,0.00,,,0.00,WeatherTracker,2013-06-01 11:50:00,
2013-06-01 07:55:00,75.1,66.2,29.96,NNW,331,3.0,0.0,74,0.00,,,0.00,WeatherTracker,2013-06-01 11:55:00,
2013-06-01 08:00:00,75.5,65.8,29.96,West,259,2.0,0.0,72,0.00,,,0.00,WeatherTracker,2013-06-01 12:00:00,
2013-06-01 08:05:00,75.9,66.2,29.96,WNW,292,2.0,0.0,72,0.00,,,0.00,WeatherTracker,2013-06-01 12:05:00,
2013-06-01 08:10:00,76.2,66.1,29.96,West,278,3.0,0.0,71,0.00,,,0.00,WeatherTracker,2013-06-01 12:10:00,
2013-06-01 08:20:00,76.9,66.4,29.96,West,267,4.0,0.0,70,0.00,,,0.00,WeatherTracker,2013-06-01 12:20:00,
2013-06-01 08:25:00,77.1,66.1,29.95,WSW,243,5.0,0.0,69,0.00,,,0.00,WeatherTracker,2013-06-01 12:25:00,
2013-06-01 08:30:00,77.3,66.3,29.95,West,267,3.0,0.0,69,0.00,,,0.00,WeatherTracker,2013-06-01 12:30:00,
2013-06-01 08:35:00,77.6,66.6,29.96,SW,232,5.0,0.0,69,0.00,,,0.00,WeatherTracker,2013-06-01 12:35:00,
2013-06-01 08:40:00,78.1,66.7,29.96,WNW,303,3.0,0.0,68,0.00,,,0.00,WeatherTracker,2013-06-01 12:40:00,
2013-06-01 08:50:00,79.1,67.2,29.96,NW,313,1.0,0.0,67,0.00,,,0.00,WeatherTracker,2013-06-01 12:50:00,
2013-06-01 09:00:00,79.9,67.1,29.95,NNW,327,3.0,0.0,65,0.00,,,0.00,WeatherTracker,2013-06-01 13:00:00,
2013-06-01 09:05:00,80.3,67.0,29.95,West,266,5.0,0.0,64,0.00,,,0.00,WeatherTracker,2013-06-01 13:05:00,
2013-06-01 09:10:00,80.5,67.2,29.95,West,259,5.0,0.0,64,0.00,,,0.00,WeatherTracker,2013-06-01 13:10:00,
2013-06-01 09:20:00,81.2,67.4,29.96,West,261,4.0,0.0,63,0.00,,,0.00,WeatherTracker,2013-06-01 13:20:00,
2013-06-01 09:30:00,82.3,67.5,29.95,WNW,290,1.0,0.0,61,0.00,,,0.00,WeatherTracker,2013-06-01 13:30:00,
2013-06-01 09:35:00,82.7,67.9,29.95,WNW,283,3.0,0.0,61,0.00,,,0.00,WeatherTracker,2013-06-01 13:35:00,
2013-06-01 09:45:00,83.0,67.7,29.95,West,280,4.0,0.0,60,0.00,,,0.00,WeatherTracker,2013-06-01 13:45:00,
2013-06-01 09:50:00,83.0,67.7,29.95,West,265,3.0,0.0,60,0.00,,,0.00,WeatherTracker,2013-06-01 13:50:00,
2013-06-01 10:00:00,83.6,68.2,29.95,NW,309,7.0,0.0,60,0.00,,,0.00,WeatherTracker,2013-06-01 14:00:00,
2013-06-01 10:05:00,84.3,67.9,29.95,NW,316,4.0,0.0,58,0.00,,,0.00,WeatherTracker,2013-06-01 14:05:00,
2013-06-01 10:15:00,85.4,67.9,29.95,NW,306,5.0,0.0,56,0.00,,,0.00,WeatherTracker,2013-06-01 14:15:00,
2013-06-01 10:25:00,85.3,66.7,29.95,West,261,4.0,0.0,54,0.00,,,0.00,WeatherTracker,2013-06-01 14:25:00,
2013-06-01 10:30:00,85.6,67.0,29.95,WNW,283,4.0,0.0,54,0.00,,,0.00,WeatherTracker,2013-06-01 14:30:00,
2013-06-01 10:40:00,86.5,67.3,29.95,West,262,3.0,0.0,53,0.00,,,0.00,WeatherTracker,2013-06-01 14:40:00,
2013-06-01 10:45:00,86.8,66.5,29.95,NNW,336,5.0,0.0,51,0.00,,,0.00,WeatherTracker,2013-06-01 14:45:00,
2013-06-01 10:55:00,87.0,66.1,29.95,NW,306,7.0,0.0,50,0.00,,,0.00,WeatherTracker,2013-06-01 14:55:00,
2013-06-01 11:05:00,87.1,66.2,29.94,WSW,257,7.0,0.0,50,0.00,,,0.00,WeatherTracker,2013-06-01 15:05:00,
2013-06-01 11:15:00,87.3,66.4,29.94,WNW,285,5.0,0.0,50,0.00,,,0.00,WeatherTracker,2013-06-01 15:15:00,
2013-06-01 11:20:00,87.4,66.4,29.94,NW,306,4.0,0.0,50,0.00,,,0.00,WeatherTracker,2013-06-01 15:20:00,
2013-06-01 11:25:00,87.4,66.4,29.94,SW,221,4.0,0.0,50,0.00,,,0.00,WeatherTracker,2013-06-01 15:25:00,
2013-06-01 11:35:00,87.8,67.4,29.94,NW,324,4.0,0.0,51,0.00,,,0.00,WeatherTracker,2013-06-01 15:35:00,
2013-06-01 11:40:00,88.1,66.5,29.93,WSW,238,6.0,0.0,49,0.00,,,0.00,WeatherTracker,2013-06-01 15:40:00,
2013-06-01 11:45:00,88.3,67.3,29.93,WSW,256,6.0,0.0,50,0.00,,,0.00,WeatherTracker,2013-06-01 15:45:00,
2013-06-01 11:50:00,88.5,66.3,29.93,West,275,1.0,0.0,48,0.00,,,0.00,WeatherTracker,2013-06-01 15:50:00,
2013-06-01 11:55:00,88.7,65.8,29.93,NNW,330,7.0,0.0,47,0.00,,,0.00,WeatherTracker,2013-06-01 15:55:00,
2013-06-01 12:05:00,89.1,66.2,29.92,West,278,2.0,0.0,47,0.00,,,0.00,WeatherTracker,2013-06-01 16:05:00,
2013-06-01 12:10:00,88.9,66.0,29.93,NNW,329,7.0,0.0,47,0.00,,,0.00,WeatherTracker,2013-06-01 16:10:00,
2013-06-01 12:15:00,88.6,65.1,29.92,WNW,296,4.0,0.0,46,0.00,,,0.00,WeatherTracker,2013-06-01 16:15:00,
2013-06-01 12:20:00,88.6,64.5,29.92,NW,313,8.0,0.0,45,0.00,,,0.00,WeatherTracker,2013-06-01 16:20:00,
2013-06-01 12:25:00,88.6,65.1,29.92,NNW,334,2.0,0.0,46,0.00,,,0.00,WeatherTracker,2013-06-01 16:25:00,
2013-06-01 12:30:00,88.6,65.1,29.92,WNW,288,3.0,0.0,46,0.00,,,0.00,WeatherTracker,2013-06-01 16:30:00,
2013-06-01 12:40:00,89.3,65.1,29.91,WSW,255,6.0,0.0,45,0.00,,,0.00,WeatherTracker,2013-06-01 16:40:00,
2013-06-01 12:45:00,89.7,66.1,29.91,NW,311,0.0,0.0,46,0.00,,,0.00,WeatherTracker,2013-06-01 16:45:00,
2013-06-01 12:55:00,90.3,67.3,29.90,SW,234,5.0,0.0,47,0.00,,,0.00,WeatherTracker,2013-06-01 16:55:00,
2013-06-01 13:00:00,90.1,66.5,29.90,WNW,293,5.0,0.0,46,0.00,,,0.00,WeatherTracker,2013-06-01 17:00:00,
2013-06-01 13:05:00,89.7,66.7,29.90,West,260,1.0,0.0,47,0.00,,,0.00,WeatherTracker,2013-06-01 17:05:00,
2013-06-01 13:10:00,89.7,66.1,29.90,WNW,286,7.0,0.0,46,0.00,,,0.00,WeatherTracker,2013-06-01 17:10:00,
2013-06-01 13:20:00,89.7,66.1,29.89,West,271,12.0,0.0,46,0.00,,,0.00,WeatherTracker,2013-06-01 17:20:00,
2013-06-01 13:25:00,89.7,65.5,29.89,NW,304,6.0,0.0,45,0.00,,,0.00,WeatherTracker,2013-06-01 17:25:00,
2013-06-01 13:35:00,89.8,64.9,29.89,WNW,284,2.0,0.0,44,0.00,,,0.00,WeatherTracker,2013-06-01 17:35:00,
2013-06-01 13:45:00,90.7,63.7,29.89,West,261,13.0,0.0,41,0.00,,,0.00,WeatherTracker,2013-06-01 17:45:00,
2013-06-01 13:55:00,90.5,63.5,29.89,West,271,4.0,0.0,41,0.00,,,0.00,WeatherTracker,2013-06-01 17:55:00,
2013-06-01 14:05:00,90.6,65.0,29.89,West,266,6.0,0.0,43,0.00,,,0.00,WeatherTracker,2013-06-01 18:05:00,
2013-06-01 14:10:00,90.5,64.9,29.89,NW,309,6.0,0.0,43,0.00,,,0.00,WeatherTracker,2013-06-01 18:10:00,
2013-06-01 14:20:00,90.7,65.1,29.89,West,269,8.0,0.0,43,0.00,,,0.00,WeatherTracker,2013-06-01 18:20:00,
2013-06-01 14:30:00,90.8,66.5,29.88,West,277,5.0,0.0,45,0.00,,,0.00,WeatherTracker,2013-06-01 18:30:00,
2013-06-01 14:35:00,91.2,66.2,29.88,West,261,9.0,0.0,44,0.00,,,0.00,WeatherTracker,2013-06-01 18:35:00,
2013-06-01 14:45:00,91.0,66.7,29.88,WNW,300,8.0,0.0,45,0.00,,,0.00,WeatherTracker,2013-06-01 18:45:00,
2013-06-01 14:50:00,91.3,66.9,29.88,SW,224,4.0,0.0,45,0.00,,,0.00,WeatherTracker,2013-06-01 18:50:00,
2013-06-01 14:55:00,91.5,66.5,29.88,West,261,6.0,0.0,44,0.00,,,0.00,WeatherTracker,2013-06-01 18:55:00,
2013-06-01 15:05:00,91.0,66.0,29.87,NW,317,8.0,0.0,44,0.00,,,0.00,WeatherTracker,2013-06-01 19:05:00,
2013-06-01 15:10:00,90.8,66.5,29.87,West,270,3.0,0.0,45,0.00,,,0.00,WeatherTracker,2013-06-01 19:10:00,
2013-06-01 15:20:00,91.4,66.4,29.87,WNW,286,4.0,0.0,44,0.00,,,0.00,WeatherTracker,2013-06-01 19:20:00,
2013-06-01 15:25:00,91.5,67.1,29.87,West,269,7.0,0.0,45,0.00,,,0.00,WeatherTracker,2013-06-01 19:25:00,
2013-06-01 15:30:00,91.7,66.0,29.87,West,277,6.0,0.0,43,0.00,,,0.00,WeatherTracker,2013-06-01 19:30:00,
2013-06-01 15:40:00,90.9,66.6,29.87,NW,313,7.0,0.0,45,0.00,,,0.00,WeatherTracker,2013-06-01 19:40:00,
2013-06-01 15:45:00,91.0,67.3,29.87,North,350,5.0,0.0,46,0.00,,,0.00,WeatherTracker,2013-06-01 19:45:00,
2013-06-01 15:50:00,91.1,66.8,29.87,NW,304,6.0,0.0,45,0.00,,,0.00,WeatherTracker,2013-06-01 19:50:00,
2013-06-01 16:00:00,91.0,66.7,29.87,WSW,243,6.0,0.0,45,0.00,,,0.00,WeatherTracker,2013-06-01 20:00:00,
2013-06-01 16:05:00,91.0,66.7,29.87,WNW,291,5.0,0.0,45,0.00,,,0.00,WeatherTracker,2013-06-01 20:05:00,
2013-06-01 16:10:00,91.0,66.7,29.87,West,280,7.0,0.0,45,0.00,,,0.00,WeatherTracker,2013-06-01 20:10:00,
2013-06-01 16:15:00,91.1,66.8,29.86,WNW,284,11.0,0.0,45,0.00,,,0.00,WeatherTracker,2013-06-01 20:15:00,
2013-06-01 16:25:00,91.0,67.3,29.87,WNW,285,4.0,0.0,46,0.00,,,0.00,WeatherTracker,2013-06-01 20:25:00,
2013-06-01 16:30:00,90.9,67.2,29.86,NW,304,5.0,0.0,46,0.00,,,0.00,WeatherTracker,2013-06-01 20:30:00,
2013-06-01 16:40:00,90.5,66.8,29.86,SW,214,4.0,0.0,46,0.00,,,0.00,WeatherTracker,2013-06-01 20:40:00,
2013-06-01 16:50:00,90.4,67.4,29.86,WSW,246,4.0,0.0,47,0.00,,,0.00,WeatherTracker,2013-06-01 20:50:00,
2013-06-01 16:55:00,90.5,67.5,29.86,WNW,287,7.0,0.0,47,0.00,,,0.00,WeatherTracker,2013-06-01 20:55:00,
2013-06-01 17:05:00,90.1,67.7,29.86,WSW,244,11.0,0.0,48,0.00,,,0.00,WeatherTracker,2013-06-01 21:05:00,
2013-06-01 17:10:00,89.8,67.4,29.86,SW,227,7.0,0.0,48,0.00,,,0.00,WeatherTracker,2013-06-01 21:10:00,
2013-06-01 17:15:00,89.4,67.7,29.86,WNW,295,4.0,0.0,49,0.00,,,0.00,WeatherTracker,2013-06-01 21:15:00,
2013-06-01 17:25:00,89.5,68.9,29.86,WSW,244,1.0,0.0,51,0.00,,,0.00,WeatherTracker,2013-06-01 21:25:00,
2013-06-01 17:30:00,89.6,68.5,29.86,WSW,258,4.0,0.0,50,0.00,,,0.00,WeatherTracker,2013-06-01 21:30:00,
2013-06-01 17:35:00,89.4,68.8,29.86,SW,225,7.0,0.0,51,0.00,,,0.00,WeatherTracker,2013-06-01 21:35:00,
2013-06-01 17:45:00,88.9,69.0,29.85,West,277,4.0,0.0,52,0.00,,,0.00,WeatherTracker,2013-06-01 21:45:00,
2013-06-01 17:50:00,88.7,69.3,29.85,NW,321,3.0,0.0,53,0.00,,,0.00,WeatherTracker,2013-06-01 21:50:00,
2013-06-01 18:00:00,87.9,69.1,29.85,NW,311,7.0,0.0,54,0.00,,,0.00,WeatherTracker,2013-06-01 22:00:00,
2013-06-01 18:10:00,87.5,69.3,29.85,North,5,2.0,0.0,55,0.00,,,0.00,WeatherTracker,2013-06-01 22:10:00,
2013-06-01 18:15:00,87.5,69.3,29.85,WSW,242,4.0,0.0,55,0.00,,,0.00,WeatherTracker,2013-06-01 22:15:00,
2013-06-01 18:20:00,87.1,68.9,29.85,SW,229,9.0,0.0,55,0.00,,,0.00,WeatherTracker,2013-06-01 22:20:00,
2013-06-01 18:30:00,86.5,68.9,29.85,West,271,6.0,0.0,56,0.00,,,0.00,WeatherTracker,2013-06-01 22:30:00,
2013-06-01 18:35:00,86.3,69.2,29.85,SSW,207,4.0,0.0,57,0.00,,,0.00,WeatherTracker,2013-06-01 22:35:00,
2013-06-01 18:45:00,85.8,69.3,29.86,WSW,240,7.0,0.0,58,0.00,,,0.00,WeatherTracker,2013-06-01 22:45:00,
2013-06-01 18:50:00,85.5,69.0,29.86,WNW,291,11.0,0.0,58,0.00,,,0.00,WeatherTracker,2013-06-01 22:50:00,
2013-06-01 19:00:00,85.0,69.5,29.86,West,279,7.0,0.0,60,0.00,,,0.00,WeatherTracker,2013-06-01 23:00:00,
2013-06-01 19:05:00,84.6,69.2,29.86,West,269,6.0,0.0,60,0.00,,,0.00,WeatherTracker,2013-06-01 23:05:00,
2013-06-01 19:15:00,83.9,69.5,29.86,West,263,12.0,0.0,62,0.00,,,0.00,WeatherTracker,2013-06-01 23:15:00,
2013-06-01 19:20:00,83.6,69.2,29.87,WNW,286,5.0,0.0,62,0.00,,,0.00,WeatherTracker,2013-06-01 23:20:00,
2013-06-01 19:25:00,83.4,69.5,29.86,WSW,250,6.0,0.0,63,0.00,,,0.00,WeatherTracker,2013-06-01 23:25:00,
2013-06-01 19:30:00,83.2,69.3,29.87,WNW,296,2.0,0.0,63,0.00,,,0.00,WeatherTracker,2013-06-01 23:30:00,
2013-06-01 19:40:00,82.8,69.4,29.87,WNW,302,6.0,0.0,64,0.00,,,0.00,WeatherTracker,2013-06-01 23:40:00,
2013-06-01 19:45:00,82.5,69.5,29.87,SW,230,4.0,0.0,65,0.00,,,0.00,WeatherTracker,2013-06-01 23:45:00,
2013-06-01 19:50:00,82.2,69.2,29.87,West,271,4.0,0.0,65,0.00,,,0.00,WeatherTracker,2013-06-01 23:50:00,
2013-06-01 19:55:00,81.9,69.4,29.87,SW,230,6.0,0.0,66,0.00,,,0.00,WeatherTracker,2013-06-01 23:55:00,
2013-06-01 20:05:00,81.5,69.5,29.87,WNW,302,5.0,0.0,67,0.00,,,0.00,WeatherTracker,2013-06-02 00:05:00,
2013-06-01 20:10:00,81.3,69.3,29.87,SW,220,1.0,0.0,67,0.00,,,0.00,WeatherTracker,2013-06-02 00:10:00,
2013-06-01 20:15:00,81.1,69.1,29.86,WSW,246,3.0,0.0,67,0.00,,,0.00,WeatherTracker,2013-06-02 00:15:00,
2013-06-01 20:25:00,80.7,69.1,29.86,WSW,258,12.0,0.0,68,0.00,,,0.00,WeatherTracker,2013-06-02 00:25:00,
2013-06-01 20:30:00,80.5,68.9,29.86,WNW,290,3.0,0.0,68,0.00,,,0.00,WeatherTracker,2013-06-02 00:30:00,
2013-06-01 20:35:00,80.3,69.2,29.87,WSW,250,3.0,0.0,69,0.00,,,0.00,WeatherTracker,2013-06-02 00:35:00,
2013-06-01 20:45:00,79.9,69.2,29.87,WSW,237,7.0,0.0,70,0.00,,,0.00,WeatherTracker,2013-06-02 00:45:00,
2013-06-01 20:50:00,79.7,69.0,29.87,SSW,212,1.0,0.0,70,0.00,,,0.00,WeatherTracker,2013-06-02 00:50:00,
2013-06-01 20:55:00,79.5,68.8,29.87,WSW,247,7.0,0.0,70,0.00,,,0.00,WeatherTracker,2013-06-02 00:55:00,
2013-06-01 21:00:00,79.4,68.7,29.87,West,265,5.0,0.0,70,0.00,,,0.00,WeatherTracker,2013-06-02 01:00:00,
2013-06-01 21:05:00,79.2,69.0,29.87,SSW,199,5.0,0.0,71,0.00,,,0.00,WeatherTracker,2013-06-02 01:05:00,
2013-06-01 21:10:00,79.0,68.8,29.88,West,259,4.0,0.0,71,0.00,,,0.00,WeatherTracker,2013-06-02 01:10:00,
2013-06-01 21:15:00,78.9,68.7,29.88,West,279,5.0,0.0,71,0.00,,,0.00,WeatherTracker,2013-06-02 01:15:00,
2013-06-01 21:20:00,78.8,68.6,29.88,WSW,256,5.0,0.0,71,0.00,,,0.00,WeatherTracker,2013-06-02 01:20:00,
2013-06-01 21:25:00,78.6,68.4,29.88,WSW,241,6.0,0.0,71,0.00,,,0.00,WeatherTracker,2013-06-02 01:25:00,
2013-06-01 21:30:00,78.4,68.2,29.88,West,265,3.0,0.0,71,0.00,,,0.00,WeatherTracker,2013-06-02 01:30:00,
2013-06-01 21:35:00,78.3,68.1,29.88,West,274,7.0,0.0,71,0.00,,,0.00,WeatherTracker,2013-06-02 01:35:00,
2013-06-01 21:40:00,78.2,68.4,29.88,WSW,257,5.0,0.0,72,0.00,,,0.00,WeatherTracker,2013-06-02 01:40:00,
2013-06-01 21:50:00,77.9,68.1,29.88,West,280,3.0,0.0,72,0.00,,,0.00,WeatherTracker,2013-06-02 01:50:00,
2013-06-01 21:55:00,77.8,68.0,29.88,WNW,286,3.0,0.0,72,0.00,,,0.00,WeatherTracker,2013-06-02 01:55:00,
2013-06-01 22:05:00,77.4,68.0,29.88,WNW,300,4.0,0.0,73,0.00,,,0.00,WeatherTracker,2013-06-02 02:05:00,
2013-06-01 22:10:00,77.2,67.9,29.88,West,263,3.0,0.0,73,0.00,,,0.00,WeatherTracker,2013-06-02 02:10:00,
2013-06-01 22:15:00,77.0,68.1,29.88,NW,308,4.0,0.0,74,0.00,,,0.00,WeatherTracker,2013-06-02 02:15:00,
2013-06-01 22:25:00,76.7,67.8,29.88,West,268,5.0,0.0,74,0.00,,,0.00,WeatherTracker,2013-06-02 02:25:00,
2013-06-01 22:35:00,76.4,67.9,29.88,WNW,285,2.0,0.0,75,0.00,,,0.00,WeatherTracker,2013-06-02 02:35:00,
2013-06-01 22:45:00,76.2,67.7,29.88,SW,229,3.0,0.0,75,0.00,,,0.00,WeatherTracker,2013-06-02 02:45:00,
2013-06-01 22:55:00,76.0,67.5,29.88,WSW,257,3.0,0.0,75,0.00,,,0.00,WeatherTracker,2013-06-02 02:55:00,
2013-06-01 23:00:00,75.9,67.8,29.88,West,273,4.0,0.0,76,0.00,,,0.00,WeatherTracker,2013-06-02 03:00:00,
2013-06-01 23:05:00,75.7,67.6,29.88,West,259,6.0,0.0,76,0.00,,,0.00,WeatherTracker,2013-06-02 03:05:00,
2013-06-01 23:15:00,75.6,67.5,29.88,WNW,299,7.0,0.0,76,0.00,,,0.00,WeatherTracker,2013-06-02 03:15:00,
2013-06-01 23:20:00,75.5,67.8,29.88,WSW,249,6.0,0.0,77,0.00,,,0.00,WeatherTracker,2013-06-02 03:20:00,
2013-06-01 23:30:00,75.3,67.6,29.88,WSW,251,3.0,0.0,77,0.00,,,0.00,WeatherTracker,2013-06-02 03:30:00,
2013-06-01 23:40:00,75.1,67.4,29.88,SSW,210,5.0,0.0,77,0.00,,,0.00,WeatherTracker,2013-06-02 03:40:00,
2013-06-01 23:45:00,75.0,67.3,29.88,WSW,248,3.0,0.0,77,0.00,,,0.00,WeatherTracker,2013-06-02 03:45:00,
2013-06-01 23:50:00,74.9,67.2,29.87,WNW,284,5.0,0.0,77,0.00,,,0.00,WeatherTracker,2013-06-02 03:50:00,
2013-06-01 23:55:00,74.8,67.1,29.87,WNW,286,3.0,0.0,77,0.00,,,0.00,WeatherTracker,2013-06-02 03:55:00,